Tracking 35275 objects as of 8-Sep-2026
HD Live streaming from Space Station
objects crossing your sky now

PSLV DEB


PSLV DEB is no longer on orbit


NORAD ID: 27282
Int'l Code: 2001-049JE
Launch date: October 22, 2001
Source: India (IND)
Launch site: SRIHARIKOTA (SRI)
Decay date: 2002-02-07

Note: This is SATELLITE DEBRIS
Your satellite tracking list
Your tracking list is empty




NASA's NSSDC Master Catalog

Two Line Element Set (TLE):
1 27282U 01049JE  02037.17117860 +.04444630 +17446-1 +25341-1 0  9992
2 27282 097.6405 115.8762 0063595 246.6333 115.2953 15.78885475004377
Source of the keplerian elements: AFSPC